TimeEDT,TemperatureF,Dew PointF,Humidity,Sea Level PressureIn,VisibilityMPH,Wind Direction,Wind SpeedMPH,Gust SpeedMPH,PrecipitationIn,Events,Conditions,WindDirDegrees,DateUTC
12:56 AM,72.9,63.9,73,30.12,10.0,South,9.2,-,N/A,,Clear,180,2013-06-23 04:56:00
1:56 AM,73.9,63.9,71,30.11,10.0,South,9.2,-,N/A,,Clear,190,2013-06-23 05:56:00
2:56 AM,73.9,63.9,71,30.10,10.0,South,8.1,-,N/A,,Partly Cloudy,190,2013-06-23 06:56:00
3:56 AM,72.9,63.9,73,30.09,10.0,South,8.1,-,N/A,,Mostly Cloudy,190,2013-06-23 07:56:00
4:56 AM,72.9,63.9,73,30.10,10.0,South,6.9,-,N/A,,Overcast,180,2013-06-23 08:56:00
5:56 AM,72.0,63.9,76,30.11,10.0,SSW,5.8,-,N/A,,Scattered Clouds,210,2013-06-23 09:56:00
6:24 AM,73.4,64.4,73,30.14,10.0,SSW,6.9,-,N/A,,Partly Cloudy,200,2013-06-23 10:24:00
6:56 AM,72.9,63.9,73,30.12,10.0,South,5.8,-,N/A,,Clear,190,2013-06-23 10:56:00
7:56 AM,75.9,64.9,69,30.13,10.0,SSW,5.8,-,N/A,,Clear,200,2013-06-23 11:56:00
8:56 AM,79.0,66.9,66,30.13,10.0,SSW,9.2,-,N/A,,Clear,200,2013-06-23 12:56:00
9:56 AM,81.9,66.9,60,30.12,10.0,SW,9.2,-,N/A,,Clear,220,2013-06-23 13:56:00
10:56 AM,84.9,68.0,57,30.11,10.0,SSW,13.8,19.6,N/A,,Clear,210,2013-06-23 14:56:00
11:56 AM,88.0,66.9,49,30.09,10.0,WSW,15.0,-,N/A,,Partly Cloudy,240,2013-06-23 15:56:00
12:56 PM,90.0,64.9,43,30.08,10.0,SW,12.7,-,N/A,,Scattered Clouds,230,2013-06-23 16:56:00
1:56 PM,90.9,64.9,42,30.05,10.0,SW,12.7,-,N/A,,Scattered Clouds,220,2013-06-23 17:56:00
2:56 PM,91.9,63.0,38,30.04,10.0,SW,10.4,17.3,N/A,,Scattered Clouds,220,2013-06-23 18:56:00
3:56 PM,82.9,66.9,58,30.06,10.0,North,19.6,28.8,N/A,,Mostly Cloudy,350,2013-06-23 19:56:00
4:05 PM,78.8,66.2,65,30.08,10.0,North,18.4,32.2,N/A,,Overcast,10,2013-06-23 20:05:00
4:56 PM,72.9,68.0,85,30.09,7.0,NW,10.4,-,0.00,Rain-Thunderstorm,Thunderstorms and Rain,310,2013-06-23 20:56:00
5:18 PM,69.8,68.0,94,30.13,1.5,WNW,11.5,-,0.28,Rain-Thunderstorm,Heavy Thunderstorms and Rain,290,2013-06-23 21:18:00
5:42 PM,69.8,66.2,88,30.10,3.0,ESE,4.6,-,0.55,Rain-Thunderstorm,Thunderstorms and Rain,110,2013-06-23 21:42:00
5:56 PM,70.0,68.0,93,30.08,6.0,SSE,11.5,-,0.55,Rain,Light Rain,150,2013-06-23 21:56:00
6:56 PM,70.0,68.9,96,30.07,6.0,SSE,5.8,-,0.07,Rain,Light Rain,160,2013-06-23 22:56:00
7:56 PM,70.9,68.0,91,30.05,7.0,SE,4.6,-,0.01,,Mostly Cloudy,140,2013-06-23 23:56:00
8:56 PM,70.9,68.0,91,30.07,4.0,SW,3.5,-,N/A,,Scattered Clouds,220,2013-06-24 00:56:00
9:56 PM,70.9,66.9,87,30.08,10.0,South,4.6,-,N/A,,Scattered Clouds,170,2013-06-24 01:56:00
10:56 PM,70.0,66.9,90,30.09,8.0,South,4.6,-,0.00,,Clear,170,2013-06-24 02:56:00
11:56 PM,70.0,66.9,90,30.08,9.0,South,6.9,-,0.00,,Clear,180,2013-06-24 03:56:00